Regional Weather Roundup
Issued by NWS

Home | Current Version | Previous Version | Graphics & Text | Print | Product List | Glossary On
Versions: 1 2 3 4 5 6 7 8 9 10 11 12 13 14 15 16 17 18 19 20 21 22 23 24 25 26 27 28 29 30 31 32 33 34 35 36 37 38 39 40 41 42 43 44 45 46 47 48 49 50
000
ASUS43 KFSD 190902
RWRSD

WEATHER ROUNDUP FOR SOUTH DAKOTA
NATIONAL WEATHER SERVICE SIOUX FALLS SD
400 AM CDT FRI SEP 19 2014

NOTE: "FAIR" INDICATES FEW OR NO CLOUDS BELOW 12,000 FEET WITH NO
SIGNIFICANT WEATHER AND/OR OBSTRUCTIONS TO VISIBILITY.


SDZ001>005-009-010-012>017-191000-
NORTHWEST AND NORTH CENTRAL SOUTH DAKOTA

CITY           SKY/WX    TMP DP  RH WIND       PRES   REMARKS
FAITH            N/A     64  60  87 SE5       29.72S
MOBRIDGE       CLOUDY    66  62  87 E14G24    29.56F
$$

SDZ012>016-024>037-041>051-057-063-072>074-191000-
SOUTHWEST AND SOUTH CENTRAL SOUTH DAKOTA

CITY           SKY/WX    TMP DP  RH WIND       PRES   REMARKS
RAPID CTY ARPT PTCLDY    70  51  51 NW17      29.78R
PIERRE         CLOUDY    64  61  90 SE12      29.69S
CUSTER         MOCLDY    62  47  57 N6        29.91R
ELLSWORTH AFB  MOCLDY    71  52  50 N18G26    29.78S
PHILIP         CLOUDY    66  61  84 W10       29.68S
PINE RIDGE     PTCLDY    64  60  87 NW12      29.79R
WINNER         FAIR      68  63  84 S22G31    29.70F
$$

SDZ004>011-016>023-039-040-191000-
NORTHEAST SOUTH DAKOTA

CITY           SKY/WX    TMP DP  RH WIND       PRES   REMARKS
ABERDEEN       CLOUDY    65  58  78 SW14G24   29.77R
WATERTOWN      CLOUDY    62  55  77 S16G24    29.80S
SISSETON         N/A     63  57  81 S10       29.74S
$$

SDZ017-020-022-023-036>040-048>070-191000-
SOUTHEAST SOUTH DAKOTA

CITY           SKY/WX    TMP DP  RH WIND       PRES   REMARKS
SIOUX FALLS    CLOUDY    62  57  83 S24G31    29.85F
HURON          CLOUDY    63  57  81 S18G28    29.77R
CHAMBERLAIN    PTCLDY    65  63  92 S8        29.73R
MITCHELL       CLOUDY    63  58  83 S16G24    29.79F
YANKTON        CLOUDY    63  59  88 S14       29.85F
$$

ABBREVIATIONS USED IN REMARKS
   TC - TEMPERATURE IN CELSIUS
  WCI - WIND CHILL INDEX
   HX - HEAT INDEX
  VSB - VISIBILITY




USA.gov is the U.S. government's official web portal to all federal, state and local government web resources and services.